SCOUT X-4 R/B, 907

Orbit data source: Space-Track

SCOUT X-4 R/B, 907 is space debris in LEO originally from a launch on Sat, 10 Oct 1964 UTC launched from the Air Force Western Test Range (AFWTR). Debris objects in space refer to the collection of defunct objects orbiting the Earth. Examples of debris include non-operational satellites, rocket bodies, and fragments generated from explosions, collisions, or faulty payload assembly.

Loading next visibility...
Identifier
907, 1964-064B
Orbit
LEO
Country
Flag of USUS
Related business
Manufacturer
ABL
Mission
Spacecraft
Bus & Motor
ALTAIR, Unknown motor
Mass
33 kg wet, 33 kg dry
Launch date (UTC)
1964-10-10 (61 years ago)
Launch vehicle
Unknown
Launch site
Air Force Western Test Range (AFWTR)
Object type
Payload
Rocket body
Debris
Shape & HBR
Unknown
Radar Cross Section
Medium (>0.1 m² and <1 m²)

Expand to show TLE details & history
Last TLE update: 9 hours ago

TLE from 9 hours ago
0 SCOUT X-4 R/B
1   907U 64064B   26035.83089918  .00000173  00000-0  15094-3 0  9991
2   907  79.6940 313.6929 0120172 281.2175  77.5486 13.80910751 84379
Epoch: 2026-02-04T19:56Z
TLE epoch observation values (Epoch: 2026-02-04T19:56:29.689Z)
Latitude
-0.00006°
Longitude
-120.42266°
Altitude
945.461 km
Speed
7.388 km/s
True Right ascension
20h 54m 46s
True Declination
0° 00' 00"
Sunlit
Object was in daylight at epoch
Visualization orbit readout
Latitude
Unknown
Longitude
Unknown
Altitude
Unknown
Speed
Unknown
Apparent Right ascension
Unknown
Apparent Declination
Unknown
Sunlit
N/A
Visualization observer readout
Local Sidereal Time
07:00:08
Azimuth
Unknown
Elevation
Unknown
Doppler factor
Unknown
Orbital elements
Apogee altitude
1,046.11 km
Perigee altitude
869.791 km
Semi-major axis
7,336.087 km
Eccentricity
0.01202
Inclination
79.694°
RAAN
313.6929°
Arg. of periapsis
281.2175°
True anomaly
78.89752°
Mean anomaly
77.5486°
Eccentric anomaly
78.22264°
Mean motion
3.45419 °/min
Orbital period
104.22 mins
BSTAR
0.00015094
Loading maneuver chart data...
Computing Atmospheric mass density...
Loading historical data...
Loading historical data...
Loading historical data...
Loading historical data...
Loading historical data...
Loading historical data...
Loading historical data...
Other satellites on launch #64 in the year 1964 (1964-10-10 UTC)

Documentation

Showing up to 5 results
|